Showing default

GAOFEN 9 03, 45794

Orbit data source: Space-Track

GAOFEN 9 03, 45794 is a payload satellite owned by GGKGJ (CN) in SSO that was launched on Wed, 17 Jun 2020 UTC via a CHANG ZHENG 2D launch vehicle from the Jiuquan Satellite Launch Center, China (JSC). Payload-class satellites include a variety of spacecraft equipped with specific instruments for various scientific and technological missions. These include communications satellites like Starlink; space stations such as the ISS; scientific satellites like the Hubble; Earth observation satellites from companies like Planet Labs, Umbra, and HawkEye 360; GPS; miniature CubeSats for education and research; and military/defense satellites.

Loading next visibility...
Identifier
45794, 2020-039A
Orbit
SSO
Country
Flag of CNCN / PRC
Related business
Manufacturer
DFH
Mission
Operational Defense Imaging
Bus & Motor
CAST-3000, AOCS
Mass
~1,700 kg wet, ~1,500 kg dry
Launch date (UTC)
2020-06-17 (5 years ago)
Launch vehicle
CHANG ZHENG 2D
Launch site
Jiuquan Satellite Launch Center, China (JSC)
Object type
Payload
Rocket body
Debris
Shape & HBR
Box + 2 Pan, Unknown HBR
Radar Cross Section
4.991 m², Large (>1 m²)

Expand to show TLE details & history
Last TLE update: 1 day ago

TLE from 1 day ago
0 GAOFEN 9 03
1 45794U 20039A   25306.48051622  .00010388  00000-0  39115-3 0  9999
2 45794  97.5127  72.5103 0013793 159.2339 200.9463 15.27207810299091
Epoch: 2025-11-02T11:31Z
TLE epoch observation values (Epoch: 2025-11-02T11:31:56.601Z)
Latitude
-0.00001°
Longitude
-142.47117°
Altitude
496.104 km
Speed
7.612 km/s
True Right ascension
04h 50m 02s
True Declination
0° 00' 00"
Sunlit
Object was in full shadow at epoch
Visualization orbit readout
Latitude
Unknown
Longitude
Unknown
Altitude
Unknown
Speed
Unknown
Apparent Right ascension
Unknown
Apparent Declination
Unknown
Sunlit
N/A
Visualization observer readout
Local Sidereal Time
07:35:10
Azimuth
Unknown
Elevation
Unknown
Doppler factor
Unknown
Orbital elements
Apogee altitude
490.586 km
Perigee altitude
471.664 km
Semi-major axis
6,859.262 km
Eccentricity
0.00138
Inclination
97.5127°
RAAN
72.5103°
Arg. of periapsis
159.2339°
True anomaly
200.88989°
Mean anomaly
200.9463°
Eccentric anomaly
200.91808°
Mean motion
3.82056 °/min
Orbital period
94.23 mins
BSTAR
0.00039115
Loading maneuver chart data...
Computing Atmospheric mass density...
Loading historical data...
Loading historical data...
Loading historical data...
Loading historical data...
Loading historical data...
Loading historical data...
Loading historical data...

Documentation

Showing up to 5 results
|